Location: Invercargill
(46.4000°S, 168.3500°E)
Time: 11:54:27
(UTC+12:00)

Explorer 7 - All Passes

Search period start: 21 July 2019 00:00
Search period end: 31 July 2019 00:00
Orbit: 485 x 680 km, 50.3° (Epoch: 19 July)

Date Brightness Start Highest point End Pass type
(mag) Time Alt. Az. Time Alt. Az. Time Alt. Az.
21 Jul - 08:56:16 10° NE 08:57:12 10° NE 08:58:09 10° ENE daylight
21 Jul - 10:32:13 10° NW 10:36:54 46° NE 10:41:40 10° ESE daylight
21 Jul - 12:12:32 10° W 12:17:31 69° SSW 12:22:28 10° ESE daylight
21 Jul - 13:53:43 10° WSW 13:58:37 54° S 14:03:24 10° E daylight
21 Jul - 15:34:37 10° WSW 15:39:35 87° NNW 15:44:19 10° ENE daylight
21 Jul - 17:15:51 10° W 17:19:47 25° NW 17:23:32 10° NNE daylight
22 Jul - 08:58:51 10° N 09:01:56 17° NE 09:05:03 10° E daylight
22 Jul - 10:37:01 10° NW 10:41:53 64° NNE 10:46:50 10° ESE daylight
22 Jul - 12:17:45 10° W 12:22:41 60° S 12:27:35 10° ESE daylight
22 Jul - 13:58:53 10° WSW 14:03:50 59° S 14:08:37 10° E daylight
22 Jul - 15:39:44 10° WSW 15:44:38 66° NNW 15:49:18 10° NE daylight
22 Jul - 17:21:30 10° W 17:24:33 17° NW 17:27:30 10° N daylight
23 Jul - 09:02:46 10° N 09:06:42 25° NE 09:10:44 10° E daylight
23 Jul - 10:41:59 10° WNW 10:46:55 84° NNE 10:51:56 10° ESE daylight
23 Jul - 12:22:58 10° W 12:27:53 55° S 12:32:45 10° ESE daylight
23 Jul - 14:04:01 10° WSW 14:09:01 67° SSE 14:13:50 10° E daylight
23 Jul - 15:44:53 10° WSW 15:49:37 47° NW 15:54:08 10° NE daylight
23 Jul - 17:28:21 10° WNW 17:29:16 10° NW 17:30:11 10° NW daylight
24 Jul - 09:07:09 10° NNW 09:11:34 36° NE 09:16:07 10° ESE daylight
24 Jul - 10:47:04 10° WNW 10:52:01 78° SSW 10:57:02 10° ESE daylight
24 Jul - 12:28:11 10° WSW 12:33:06 54° S 12:37:56 10° ESE daylight
24 Jul - 14:09:08 10° WSW 14:14:09 81° SSE 14:18:59 10° ENE daylight
24 Jul - 15:50:08 10° WSW 15:54:32 33° NW 15:58:44 10° NNE daylight
25 Jul - 07:34:53 10° NNE 07:36:45 12° NE 07:38:39 10° ENE visible
25 Jul - 09:11:48 10° NW 09:16:30 51° NE 09:21:20 10° ESE daylight
25 Jul - 10:52:14 10° W 10:57:10 66° SSW 11:02:09 10° ESE daylight
25 Jul - 12:33:23 10° WSW 12:38:18 56° S 12:43:10 10° E daylight
25 Jul - 14:14:14 10° WSW 14:19:14 80° NNW 14:24:04 10° ENE daylight
25 Jul - 15:55:33 10° W 15:59:22 23° NW 16:03:02 10° N daylight
26 Jul - 07:38:09 10° N 07:41:29 19° NE 07:44:54 10° E visible
26 Jul - 09:16:40 10° NW 09:21:30 70° NNE 09:26:28 10° ESE daylight
26 Jul - 10:57:27 10° W 11:02:21 58° S 11:07:18 10° ESE daylight
26 Jul - 12:38:32 10° WSW 12:43:30 61° SSE 12:48:23 10° E daylight
26 Jul - 14:19:21 10° WSW 14:24:16 60° NNW 14:29:00 10° NE daylight
26 Jul - 16:01:23 10° W 16:04:07 15° NW 16:06:49 10° NNW daylight
27 Jul - 07:42:15 10° NNW 07:46:17 28° NE 07:50:28 10° E visible
27 Jul - 09:21:40 10° WNW 09:26:34 90° S 09:31:35 10° ESE daylight
27 Jul - 11:02:41 10° W 11:07:33 54° S 11:12:27 10° ESE daylight
27 Jul - 12:43:40 10° WSW 12:48:40 71° SSE 12:53:35 10° ENE daylight
27 Jul - 14:24:31 10° WSW 14:29:13 43° NW 14:33:45 10° NE daylight
28 Jul - 07:46:44 10° NNW 07:51:09 40° NE 07:55:47 10° ESE daylight
28 Jul - 09:26:47 10° WNW 09:31:40 73° SSW 09:36:41 10° ESE daylight
28 Jul - 11:07:53 10° WSW 11:12:46 54° S 11:17:40 10° E daylight
28 Jul - 12:48:46 10° WSW 12:53:47 87° SSE 12:58:43 10° ENE daylight
28 Jul - 14:29:49 10° W 14:34:07 30° NW 14:38:17 10° NNE daylight
29 Jul - 06:13:57 10° NNE 06:16:18 14° NE 06:18:43 10° E visible
29 Jul - 07:51:27 10° NW 07:56:07 57° NNE 08:00:58 10° ESE daylight
29 Jul - 09:31:59 10° W 09:36:50 62° SSW 09:41:48 10° ESE daylight
29 Jul - 11:13:04 10° WSW 11:17:59 57° S 11:22:53 10° E daylight
29 Jul - 12:53:52 10° WSW 12:58:52 74° NNW 13:03:45 10° NE daylight
29 Jul - 14:35:19 10° W 14:38:56 20° NW 14:42:27 10° N daylight
30 Jul - 06:17:34 10° N 06:21:03 21° NE 06:24:40 10° E visible
30 Jul - 07:56:22 10° WNW 08:01:08 77° NNE 08:06:06 10° ESE daylight
30 Jul - 09:37:12 10° W 09:42:01 56° S 09:46:57 10° ESE daylight
30 Jul - 11:18:12 10° WSW 11:23:10 64° SSE 11:28:06 10° E daylight
30 Jul - 12:59:00 10° WSW 13:03:52 54° NNW 13:08:38 10° NE daylight
30 Jul - 14:41:22 10° W 14:43:40 13° NW 14:45:58 10° NNW daylight
